Regional Weather Roundup
Issued by NWS

Home | Current Version | Previous Version | Graphics & Text | Print | Product List | Glossary On
Versions: 1 2 3 4 5 6 7 8 9 10 11 12 13 14 15 16 17 18 19 20 21 22 23 24 25 26 27 28 29 30 31 32 33 34 35 36 37 38 39 40 41 42 43 44 45 46 47 48 49 50
000
ASUS43 KLMK 271210
RWRKY
KENTUCKY REGIONAL WEATHER ROUNDUP
NATIONAL WEATHER SERVICE LOUISVILLE KY
800 AM EDT WED AUG 27 2014

NOTE "FAIR" INDICATES FEW OR NO CLOUDS BELOW 12,000 FEET
WITH NO SIGNIFICANT WEATHER AND/OR OBSTRUCTIONS TO VISIBILITY.

KYZ001>023-026-027-061>063-070>075-271300-
WESTERN AND SOUTH CENTRAL KENTUCKY

CITY           SKY/WX    TMP DP  RH WIND       PRES   REMARKS
PADUCAH        CLEAR     74  71  91 CALM      30.08R FOG
HENDERSON      MOCLDY   N/A N/A N/A MISG        N/A  VSB 1/2
OWENSBORO      CLEAR     74  74 100 CALM      30.09R FOG
HOPKINSVILLE   CLEAR     71  71 100 SW2       30.10R
BOWLING GREEN  CLEAR     71  70  96 CALM      30.10R FOG
GLASGOW        CLEAR     68  68 100 CALM      30.11R FOG
$$

KYZ024-025-028>034-038-045-046-053-271300-
NORTH CENTRAL KENTUCKY

CITY           SKY/WX    TMP DP  RH WIND       PRES   REMARKS
LOUISVILLE/SDF PTCLDY    75  71  87 CALM      30.10R
LOUISVILLE/LOU CLEAR     73  70  90 CALM      30.10R
FORT KNOX      CLEAR     70  70 100 CALM      30.10R FOG
$$

KYZ035>037-039>044-047>052-055>060-089>105-271300-
NORTHEAST KENTUCKY

CITY           SKY/WX    TMP DP  RH WIND       PRES   REMARKS
LEXINGTON      SUNNY     68  65  90 CALM      30.12R
COVINGTON      MOSUNNY   72  69  90 CALM      30.11R FOG
FRANKFORT      CLEAR     68  67  96 CALM      30.10S
$$

KYZ054-064>069-076>088-106>120-271300-
SOUTHEAST KENTUCKY

CITY           SKY/WX    TMP DP  RH WIND       PRES   REMARKS
JACKSON        SUNNY     65  61  87 CALM      30.14R
LONDON         SUNNY     64  61  90 CALM      30.14R
SOMERSET       CLEAR     63  63 100 CALM      30.14R
MIDDLESBORO    CLOUDY    62  62 100 CALM      30.15S FOG
MONTICELLO     SUNNY     64  64 100 CALM      30.14R FOG
$$




USA.gov is the U.S. government's official web portal to all federal, state and local government web resources and services.